[[{"header":{"parameterUnit":"m.s-1","parameterCategory":2,"la1":30.2991,"la2":30.254,"lo1":-89.0895,"lo2":-89.0444,"dy":0.0017,"dx":0.0017,"nx":28,"ny":28,"refTime":"2024-08-14T09:00:00:Z","depth":"0","parameterNumber":2,"parameterNumberName":"U-component_of_CURRENTS"},"data":[0,0,0,0,0,0,0,0,0,0,0,0,0,0,0,0,0,0,0,0,0,0,0,0,0,0,0,0,0,0,0,0,0,0,0,0,0,0,0,0,0,0,0,0,0,0,0,0,0,0,0,0,0,0,0,0,0,0,0.3989,0.3989,0,0.4012,0.4012,0.4012,0.3991,0.399,0.399,0.3989,0.4045,0.4047,0.4049,0,0,0,0,0,0,0,0,0,0,0,0,0,0.3828,0.3831,0.3989,0.399,0.399,0.4012,0.4012,0.4012,0.3991,0.399,0.399,0.3989,0.4044,0.4047,0.4049,0,0,0,0,0,0,0,0,0,0,0,0,0,0.3877,0.3833,0.3989,0.3984,0.3984,0.4011,0.4012,0.4012,0.3991,0.399,0.3989,0.3988,0.4043,0.4046,0.4049,0.4089,0,0,0.4059,0.406,0,0,0,0,0,0,0,0,0.3875,0.3883,0.3984,0.3984,0.3984,0.3999,0.3975,0.404,0.3992,0.3986,0.3989,0.3988,0.4035,0.4038,0.4042,0.4091,0.4094,0.4059,0.4061,0.4063,0.4063,0,0,0,0,0,0,0,0.3871,0.3881,0.3996,0.3985,0.3985,0.3946,0.3953,0.3987,0.4015,0.3987,0.3986,0.3992,0.4034,0.4039,0.4043,0.4094,0.4059,0.4062,0.4064,0.4065,0.4157,0.4158,0,0,0,0,0,0,0.388,0.3879,0.3995,0.3997,0.3928,0.395,0.3957,0.3994,0.4014,0.4016,0.3993,0.3991,0.4034,0.4039,0.4045,0.4054,0.4063,0.4066,0.4067,0.4157,0.4157,0.4158,0,0,0,0,0,0,0.3877,0.3891,0.3994,0.3937,0.3948,0.3955,0.3995,0.3995,0.3993,0.4018,0.402,0.399,0.4033,0.404,0.406,0.4057,0.4067,0.407,0.4156,0.4157,0.4158,0.4097,0,0,0,0,0,0,0.3873,0.3891,0.3917,0.394,0.3952,0.4003,0.3996,0.3996,0.3999,0.3997,0.4018,0.4022,0.4033,0.4055,0.4063,0.4062,0.4072,0.4155,0.4156,0.4157,0.4099,0.4096,0.4094,0,0,0,0,0,0.3867,0.3904,0.3919,0.3932,0.399,0.4004,0.4006,0.4004,0.4,0.3999,0.4007,0.4021,0.4068,0.4058,0.4067,0.4067,0.4155,0.4156,0.4157,0.41,0.4097,0.4094,0,0,0,0,0,0,0.3836,0.3907,0.3923,0.3978,0.3987,0.4001,0.3998,0.4005,0.4012,0.4004,0.4026,0.4032,0.4051,0.4074,0.4063,0.41,0.4115,0.4119,0.4069,0.4066,0.4064,0.403,0.4075,0,0,0,0,0,0.3849,0.3896,0.3938,0.3971,0.398,0.399,0.3996,0.3996,0.4006,0.4007,0.4022,0.4042,0.4068,0.4075,0.4103,0.4122,0.4113,0.4132,0.4129,0.4127,0.4108,0.4121,0.4117,0.4162,0.4162,0.4162,0,0,0.3841,0.3885,0.391,0.3967,0.3971,0.3966,0.3989,0.3992,0.3981,0.4015,0.4004,0.4039,0.4074,0.4088,0.4099,0.4102,0.41,0.4128,0.4125,0.4108,0.4122,0.4117,0.4113,0.4163,0.4163,0.4163,0,0,0.3819,0.389,0.3904,0.3918,0.3936,0.3947,0.3949,0.3965,0.3967,0.3976,0.3996,0.4018,0.4059,0.4069,0.4085,0.4091,0.4093,0.4116,0.4067,0.408,0.4076,0.4072,0.4004,0.3995,0.4107,0.4107,0.4107,0,0.3793,0.3833,0.3901,0.3899,0.3895,0.3935,0.3911,0.3929,0.3945,0.3942,0.3963,0.4009,0.4043,0.405,0.405,0.4081,0.4068,0.4069,0.4073,0.407,0.4067,0.3999,0.399,0.4104,0.4104,0.4105,0.4105,0,0.3772,0.3792,0.3792,0.3813,0.3823,0.3811,0.3843,0.3849,0.3866,0.388,0.3901,0.395,0.3968,0.3998,0.4025,0.4026,0.4013,0.4071,0.4071,0.4058,0.3988,0.3979,0.41,0.4101,0.4102,0.4103,0,0,0.371,0.3767,0.3758,0.3745,0.3773,0.377,0.3767,0.3769,0.3755,0.3798,0.3775,0.3842,0.3874,0.3894,0.3943,0.3961,0.3921,0.4002,0.4004,0.3914,0.389,0.3657,0.3625,0.3989,0.3989,0.3988,0.383,0,0.3645,0.3628,0.368,0.3632,0.3611,0.3657,0.3654,0.3668,0.369,0.3686,0.3747,0.3752,0.3836,0.3839,0.3876,0.3913,0.3904,0.3954,0.3933,0.393,0.371,0.3609,0.3419,0.3244,0.3821,0.382,0.3818,0,0.3561,0.3577,0.3526,0.3538,0.3535,0.3513,0.3501,0.3511,0.3537,0.3558,0.3584,0.3632,0.3646,0.3736,0.3766,0.3796,0.3829,0.3864,0.386,0.3656,0.3681,0.3364,0.3206,0.3149,0.3805,0.3806,0.3807,0,0.3431,0.3441,0.3398,0.3398,0.3435,0.3408,0.342,0.3444,0.3427,0.3452,0.3414,0.3494,0.3465,0.3566,0.3609,0.3697,0.3616,0.3749,0.3559,0.3542,0.3376,0.3343,0.3141,0.3763,0.3764,0.3764,0.3765,0,0.3311,0.327,0.3329,0.3303,0.3251,0.3308,0.3244,0.3279,0.3279,0.3214,0.3324,0.3255,0.3426,0.3403,0.3524,0.3436,0.3535,0.3489,0.3475,0.3342,0.3309,0.3253,0.3264,0.3758,0.376,0.3761,0.3762,0,0.3146,0.3184,0.314,0.318,0.3175,0.3131,0.311,0.3068,0.3093,0.2995,0.298,0.3018,0.297,0.3081,0.3169,0.3226,0.3121,0.3204,0.2974,0.2934,0.2712,0.2727,0.2401,0.2367,0.2969,0.2962,0.2956,0,0.3055,0.3022,0.3033,0.2995,0.2996,0.2949,0.2907,0.295,0.2892,0.2823,0.2744,0.2668,0.257,0.2547,0.2648,0.2698,0.2781,0.2551,0.2696,0.2586,0.2599,0.2588,0.259,0.2451,0.2442,0.2434,0.2428,0,0.2917,0.2922,0.2913,0.2827,0.2764,0.2696,0.2634,0.2564,0.2575,0.2481,0.2311,0.2218,0.2143,0.2062,0.2099,0.2175,0.2372,0.2387,0.2373,0.2203,0.2083,0.2081,0.2635,0.2359,0.2366,0.2371,0.2374,0.2377,0.2826,0.2765,0.274,0.2612,0.2565,0.2422,0.2292,0.2234,0.2098,0.1902,0.1934,0.1718,0.1665,0.1674,0.1721,0.1676,0.1838,0.1711,0.1742,0.1746,0.1671,0.1989,0.1645,0.1648,0.165,0.1653,0.1654,0,0.2659,0.2596,0.2513,0.2368,0.2224,0.2238,0.2085,0.1925,0.1697,0.1587,0.1414,0.1217,0.1106,0.115,0.113,0.1087,0.1189,0.1077,0.1101,0.1157,0.1509,0.1448,0.0922,0.0922,0.0922,0.0922,0.0923,0.0923,0.2578,0.2422,0.2325,0.2034,0.193,0.1685,0.1549,0.1371,0.1262,0.0972,0.0809,0.0764,0.0752,0.067,0.0629,0.066,0.0735,0.0564,0.0725,0.1057,0.1124,0.1189,0.1135,0.0552,0.0552,0.0339,0.0337,0.0335]},{"header":{"parameterUnit":"m.s-1","parameterCategory":2,"la1":30.2991,"la2":30.254,"lo1":-89.0895,"lo2":-89.0444,"dy":0.0017,"dx":0.0017,"nx":28,"ny":28,"refTime":"2024-08-14T09:00:00:Z","depth":"0","parameterNumber":3,"parameterNumberName":"V-component_of_CURRENTS"},"data":[0,0,0,0,0,0,0,0,0,0,0,0,0,0,0,0,0,0,0,0,0,0,0,0,0,0,0,0,0,0,0,0,0,0,0,0,0,0,0,0,0,0,0,0,0,0,0,0,0,0,0,0,0,0,0,0,0,0,-0.03,-0.03,0,-0.0243,-0.0242,-0.0242,-0.0233,-0.0234,-0.0234,-0.0235,-0.0032,-0.0027,-0.002,0,0,0,0,0,0,0,0,0,0,0,0,0,-0.0289,-0.029,-0.03,-0.03,-0.0299,-0.0243,-0.0242,-0.0241,-0.0233,-0.0234,-0.0235,-0.0235,-0.0034,-0.0027,-0.002,0,0,0,0,0,0,0,0,0,0,0,0,0,-0.0267,-0.029,-0.03,-0.029,-0.0289,-0.0244,-0.0242,-0.0241,-0.0233,-0.0234,-0.0235,-0.0236,-0.0037,-0.0028,-0.0019,0.006,0,0,0.0009,0.0013,0,0,0,0,0,0,0,0,-0.0268,-0.0267,-0.0292,-0.0291,-0.0289,-0.0249,-0.0164,-0.0134,-0.0232,-0.0251,-0.0235,-0.0236,-0.0092,-0.0078,-0.0064,0.007,0.0078,0.001,0.0015,0.0019,0.0022,0,0,0,0,0,0,0,-0.027,-0.0269,-0.0275,-0.0292,-0.029,-0.025,-0.0249,-0.0158,-0.0161,-0.025,-0.0249,-0.0247,-0.009,-0.0073,-0.0058,0.0081,0.001,0.0018,0.0023,0.0027,0.0366,0.0369,0,0,0,0,0,0,-0.0287,-0.0271,-0.0277,-0.0274,-0.0284,-0.025,-0.0249,-0.0258,-0.0165,-0.0154,-0.0246,-0.0247,-0.0088,-0.0069,-0.0051,0.0106,0.0019,0.0028,0.0033,0.0362,0.0367,0.037,0,0,0,0,0,0,-0.0287,-0.0289,-0.0279,-0.0272,-0.0269,-0.025,-0.026,-0.0257,-0.024,-0.0165,-0.0151,-0.0234,-0.0088,-0.0064,0.0044,0.0112,0.0032,0.004,0.0358,0.0364,0.0368,0.0385,0,0,0,0,0,0,-0.0287,-0.0289,-0.0294,-0.0274,-0.027,-0.0242,-0.0259,-0.0255,-0.0238,-0.0238,-0.0149,-0.0132,-0.0087,0.0031,0.0054,0.0123,0.0047,0.0354,0.0361,0.0367,0.038,0.039,0.0399,0,0,0,0,0,-0.0287,-0.0283,-0.0295,-0.0295,-0.0281,-0.0241,-0.0234,-0.0222,-0.0237,-0.0214,-0.0154,-0.0135,0.0089,0.0041,0.0067,0.0141,0.035,0.0359,0.0366,0.0376,0.0388,0.0398,0,0,0,0,0,0,-0.0276,-0.0282,-0.0294,-0.0293,-0.0269,-0.0241,-0.0221,-0.0219,-0.0157,-0.0154,-0.0095,-0.007,0.005,0.0099,0.0043,0.0261,0.0227,0.024,0.0225,0.0237,0.0247,0.024,0.0055,0,0,0,0,0,-0.028,-0.0278,-0.0273,-0.0266,-0.026,-0.0243,-0.0226,-0.0217,-0.0168,-0.0146,-0.0081,0.0006,0.0107,0.0168,0.0255,0.0376,0.0368,0.0445,0.0454,0.0461,0.0477,0.0502,0.0513,0.0396,0.0396,0.0396,0,0,-0.0271,-0.0274,-0.0273,-0.0262,-0.0248,-0.0201,-0.0234,-0.0204,-0.0144,-0.0125,-0.0017,0.0038,0.0144,0.0272,0.0333,0.0321,0.049,0.0471,0.0476,0.0489,0.0511,0.0522,0.0531,0.0402,0.0401,0.04,0,0,-0.0231,-0.026,-0.0236,-0.0215,-0.0194,-0.0173,-0.0165,-0.0131,-0.01,-0.0002,0.0036,0.0126,0.0273,0.0362,0.0427,0.0549,0.0529,0.0582,0.0639,0.0662,0.0671,0.0678,0.0658,0.0663,0.0597,0.0597,0.0597,0,-0.0217,-0.019,-0.0217,-0.0178,-0.0141,-0.0157,-0.0095,-0.0059,0.0015,0.0066,0.0041,0.0254,0.0325,0.0499,0.0536,0.0572,0.0553,0.0577,0.0668,0.0676,0.0683,0.0661,0.0666,0.0599,0.0599,0.0598,0.0598,0,-0.0148,-0.0122,-0.0102,-0.0058,-0.0024,0.0026,0.0062,0.0111,0.0135,0.0178,0.0315,0.0391,0.0515,0.0559,0.0588,0.0707,0.0663,0.0658,0.0621,0.0694,0.0668,0.0673,0.0601,0.0601,0.06,0.06,0,0,-0.0109,-0.0062,-0.0049,0.0002,0.0047,0.0096,0.0182,0.0276,0.0344,0.04,0.0502,0.065,0.0645,0.0719,0.0759,0.0787,0.0807,0.0742,0.0742,0.0689,0.0814,0.0768,0.0768,0.0795,0.0797,0.0799,0.0763,0,-0.0031,0.0074,0.0072,0.0198,0.0267,0.0277,0.0367,0.0442,0.0488,0.0574,0.0635,0.0737,0.0722,0.0765,0.0797,0.081,0.0827,0.0815,0.0782,0.0781,0.0704,0.0777,0.0729,0.0692,0.0768,0.0769,0.0769,0,0.0057,0.0123,0.0252,0.0352,0.0379,0.0446,0.0575,0.0642,0.0731,0.0758,0.0828,0.0844,0.0929,0.0873,0.0915,0.0895,0.0864,0.0849,0.0847,0.0806,0.0747,0.0643,0.0699,0.0709,0.0777,0.0777,0.0776,0,0.016,0.0255,0.0373,0.041,0.0513,0.0576,0.0624,0.0714,0.0769,0.0854,0.0875,0.0962,0.0982,0.0976,0.0933,0.0918,0.0927,0.0907,0.0839,0.0832,0.0793,0.078,0.0833,0.093,0.093,0.093,0.093,0,0.0276,0.0376,0.0427,0.0508,0.0634,0.0662,0.078,0.083,0.0885,0.0942,0.0959,0.0997,0.0998,0.0993,0.0956,0.0907,0.0944,0.0863,0.0838,0.0796,0.0786,0.0793,0.0811,0.0929,0.0929,0.0929,0.093,0,0.0408,0.0437,0.0574,0.0672,0.0693,0.0786,0.0833,0.0894,0.093,0.0989,0.1003,0.1022,0.1001,0.0984,0.0966,0.0926,0.0895,0.0867,0.0794,0.0763,0.071,0.073,0.0782,0.0811,0.0793,0.0792,0.0791,0,0.0504,0.0586,0.0685,0.0719,0.0763,0.0852,0.089,0.093,0.0958,0.0995,0.1016,0.1012,0.099,0.0938,0.0883,0.0818,0.0852,0.0742,0.0735,0.0721,0.0726,0.0758,0.0782,0.0672,0.067,0.0669,0.0668,0,0.0681,0.0696,0.0774,0.0815,0.0858,0.0913,0.0951,0.0978,0.0999,0.1013,0.1,0.0979,0.0923,0.0836,0.0762,0.0721,0.0761,0.0708,0.0733,0.0682,0.0685,0.0694,0.0651,0.0654,0.0656,0.0657,0.0657,0.0658,0.0785,0.0827,0.0851,0.0883,0.0911,0.0919,0.0932,0.094,0.0949,0.0911,0.0939,0.0864,0.0815,0.0694,0.0657,0.0594,0.0656,0.0574,0.0606,0.0645,0.0673,0.0584,0.0541,0.0542,0.0542,0.0543,0.0543,0,0.0856,0.0853,0.089,0.0893,0.088,0.0898,0.0914,0.0883,0.0836,0.0833,0.078,0.0706,0.0623,0.0588,0.0516,0.0496,0.0528,0.0512,0.056,0.0598,0.0538,0.0532,0.0439,0.0439,0.0439,0.0439,0.0439,0.0439,0.0889,0.0884,0.0851,0.0813,0.0809,0.0764,0.075,0.0714,0.0695,0.0607,0.0556,0.0536,0.056,0.0525,0.0493,0.0487,0.0561,0.0528,0.0613,0.0564,0.0572,0.0581,0.058,0.0499,0.0499,0.066,0.0661,0.0662]}],[{"header":{"parameterUnit":"m.s-1","parameterCategory":2,"la1":30.2991,"la2":30.254,"lo1":-89.0895,"lo2":-89.0444,"dy":0.0017,"dx":0.0017,"nx":28,"ny":28,"refTime":"2024-08-14T09:00:00:Z","depth":"2","parameterNumber":2,"parameterNumberName":"U-component_of_CURRENTS"},"data":[0,0,0,0,0,0,0,0,0,0,0,0,0,0,0,0,0,0,0,0,0,0,0,0,0,0,0,0,0,0,0,0,0,0,0,0,0,0,0,0,0,0,0,0,0,0,0,0,0,0,0,0,0,0,0,0,0,0,0.144,0.144,0,0.1506,0.1507,0.1508,0.148,0.1478,0.1476,0.1474,0.1613,0.1619,0.1624,0,0,0,0,0,0,0,0,0,0,0,0,0,0.1403,0.1403,0.144,0.144,0.1441,0.1506,0.1507,0.1509,0.148,0.1478,0.1475,0.1473,0.1611,0.1618,0.1624,0,0,0,0,0,0,0,0,0,0,0,0,0,0.1442,0.1403,0.144,0.1432,0.1432,0.1506,0.1508,0.1509,0.1481,0.1478,0.1475,0.1472,0.1609,0.1617,0.1625,0.1735,0,0,0.1651,0.1654,0,0,0,0,0,0,0,0,0.144,0.1444,0.1432,0.1432,0.1432,0.1479,0.1545,0.1587,0.1481,0.1466,0.1474,0.1471,0.1575,0.1586,0.1609,0.1741,0.1747,0.1651,0.1656,0.166,0.1662,0,0,0,0,0,0,0,0.1437,0.1442,0.147,0.1433,0.1433,0.1464,0.1466,0.1554,0.154,0.1467,0.1464,0.1467,0.1575,0.1601,0.1612,0.1749,0.1651,0.1659,0.1664,0.1667,0.2064,0.2069,0,0,0,0,0,0,0.1419,0.1439,0.1468,0.1471,0.1425,0.1466,0.1469,0.147,0.1537,0.1543,0.1469,0.1465,0.1588,0.1602,0.1617,0.1788,0.166,0.1668,0.1672,0.2058,0.2065,0.2071,0,0,0,0,0,0,0.1418,0.1421,0.1465,0.1454,0.1461,0.1469,0.1471,0.1472,0.1506,0.1538,0.1545,0.1501,0.1586,0.1605,0.1717,0.1792,0.1671,0.1679,0.2052,0.206,0.2068,0.2108,0,0,0,0,0,0,0.1417,0.1421,0.1441,0.1452,0.1461,0.1526,0.1474,0.1476,0.1509,0.1505,0.1568,0.1577,0.1585,0.1705,0.1726,0.1801,0.1685,0.2045,0.2056,0.2065,0.2099,0.2116,0.2131,0,0,0,0,0,0.1415,0.1448,0.1441,0.1446,0.1479,0.1528,0.1538,0.1535,0.1514,0.1551,0.1593,0.1575,0.1787,0.1716,0.1739,0.1818,0.204,0.2053,0.2065,0.2092,0.2113,0.2131,0,0,0,0,0,0,0.1445,0.1448,0.1441,0.1473,0.1505,0.1522,0.1561,0.1558,0.1621,0.1628,0.1639,0.1655,0.1783,0.1818,0.1739,0.1973,0.1916,0.1934,0.193,0.195,0.1965,0.1953,0.1692,0,0,0,0,0,0.1461,0.1483,0.1495,0.1527,0.1545,0.1561,0.1588,0.1593,0.1635,0.1658,0.1698,0.1771,0.1859,0.191,0.199,0.2122,0.2114,0.2198,0.2213,0.2226,0.224,0.2314,0.2335,0.2112,0.2112,0.2112,0,0,0.1477,0.1487,0.1498,0.1536,0.1561,0.161,0.1572,0.1629,0.1678,0.1672,0.1772,0.1829,0.1909,0.2039,0.2103,0.2072,0.2279,0.2242,0.2251,0.2258,0.2329,0.2349,0.2368,0.2121,0.2119,0.2118,0,0,0.1525,0.1538,0.1573,0.1607,0.1655,0.1674,0.1694,0.1738,0.1767,0.1873,0.1884,0.1982,0.2116,0.2177,0.2227,0.2396,0.2358,0.2441,0.251,0.2582,0.2599,0.2614,0.2576,0.2587,0.245,0.245,0.245,0,0.1559,0.1589,0.1598,0.1648,0.1686,0.1703,0.1764,0.1809,0.1886,0.1934,0.1917,0.2128,0.2181,0.2335,0.2389,0.2426,0.2426,0.2411,0.2594,0.2609,0.2624,0.2582,0.2594,0.2454,0.2453,0.2453,0.2453,0,0.1617,0.166,0.1694,0.1752,0.1802,0.1867,0.1914,0.1984,0.2021,0.206,0.2214,0.2291,0.2409,0.2457,0.2472,0.263,0.2577,0.259,0.2519,0.2647,0.2596,0.2607,0.2459,0.2457,0.2456,0.2455,0,0,0.1662,0.1723,0.1741,0.1787,0.1867,0.192,0.2016,0.2113,0.2186,0.2273,0.2371,0.2528,0.2557,0.262,0.2662,0.273,0.2806,0.2711,0.2713,0.2624,0.2892,0.2513,0.2488,0.2849,0.2853,0.2856,0.2791,0,0.172,0.1817,0.1834,0.195,0.201,0.206,0.2143,0.2235,0.2313,0.2415,0.2502,0.2612,0.2623,0.2683,0.2764,0.2791,0.285,0.2817,0.2826,0.2825,0.2434,0.2495,0.2409,0.2316,0.2802,0.2803,0.2805,0,0.1773,0.1838,0.1945,0.205,0.2083,0.2154,0.2301,0.2373,0.25,0.2556,0.2673,0.2722,0.2831,0.2827,0.2926,0.2902,0.2924,0.2931,0.2929,0.2573,0.2469,0.2288,0.2317,0.2823,0.2821,0.282,0.2819,0,0.1801,0.1918,0.2009,0.2048,0.2166,0.2237,0.2303,0.2429,0.2475,0.2638,0.2658,0.2824,0.2826,0.2943,0.2899,0.2953,0.2939,0.3015,0.2697,0.2667,0.2591,0.2544,0.3131,0.3131,0.3131,0.3131,0.3131,0,0.1846,0.1931,0.2033,0.209,0.2196,0.2275,0.2383,0.247,0.2564,0.2577,0.2719,0.2705,0.2859,0.2837,0.2905,0.2733,0.2936,0.2692,0.2637,0.2591,0.2548,0.3007,0.2994,0.3129,0.3129,0.313,0.313,0,0.1857,0.1921,0.2036,0.2173,0.2203,0.2285,0.2355,0.2406,0.2502,0.2513,0.254,0.259,0.2511,0.2573,0.2653,0.261,0.2589,0.25,0.2343,0.2266,0.2289,0.228,0.2199,0.2185,0.2173,0.2164,0.2156,0,0.1869,0.193,0.2066,0.209,0.2149,0.2241,0.2256,0.2365,0.2369,0.2381,0.2339,0.2279,0.2161,0.2041,0.204,0.2016,0.2205,0.1853,0.1953,0.2244,0.2202,0.2211,0.2217,0.1889,0.188,0.1872,0.1866,0,0.1915,0.1968,0.2051,0.2034,0.2069,0.2093,0.2119,0.2098,0.2151,0.211,0.1957,0.1872,0.173,0.1577,0.1474,0.1495,0.1851,0.1673,0.2103,0.2059,0.1926,0.189,0.1915,0.1795,0.1802,0.1808,0.1811,0.1814,0.1958,0.1958,0.1983,0.1948,0.1974,0.1886,0.1816,0.1797,0.1702,0.1573,0.1584,0.1389,0.1396,0.1125,0.1092,0.1101,0.1253,0.1296,0.1336,0.1381,0.1277,0.1123,0.082,0.0821,0.0822,0.0823,0.0824,0,0.1875,0.1839,0.1846,0.1777,0.1697,0.1736,0.1648,0.153,0.1313,0.1261,0.111,0.0935,0.0789,0.0822,0.0737,0.0699,0.0913,0.0673,0.1008,0.1071,0.1129,0.1031,0.05,0.0499,0.0498,0.0497,0,0,0.1844,0.1746,0.1673,0.148,0.142,0.1249,0.1147,0.1014,0.0945,0.0746,0.0646,0.0671,0.0717,0.0571,0.0576,0.0512,0.081,0.0501,0.0757,0.1212,0.127,0.1465,0.1373,0,0,0,0,0]},{"header":{"parameterUnit":"m.s-1","parameterCategory":2,"la1":30.2991,"la2":30.254,"lo1":-89.0895,"lo2":-89.0444,"dy":0.0017,"dx":0.0017,"nx":28,"ny":28,"refTime":"2024-08-14T09:00:00:Z","depth":"2","parameterNumber":3,"parameterNumberName":"V-component_of_CURRENTS"},"data":[0,0,0,0,0,0,0,0,0,0,0,0,0,0,0,0,0,0,0,0,0,0,0,0,0,0,0,0,0,0,0,0,0,0,0,0,0,0,0,0,0,0,0,0,0,0,0,0,0,0,0,0,0,0,0,0,0,0,-0.0159,-0.0158,0,-0.0026,-0.0024,-0.0022,0.0021,0.002,0.0019,0.0018,0.0127,0.0131,0.0134,0,0,0,0,0,0,0,0,0,0,0,0,0,-0.0234,-0.0233,-0.0159,-0.0158,-0.0157,-0.0026,-0.0024,-0.0021,0.0022,0.002,0.0019,0.0018,0.0125,0.013,0.0135,0,0,0,0,0,0,0,0,0,0,0,0,0,-0.0156,-0.0233,-0.0159,-0.0124,-0.012,-0.0026,-0.0023,-0.002,0.0022,0.002,0.0018,0.0017,0.0124,0.013,0.0135,0.0206,0,0,0.0154,0.0156,0,0,0,0,0,0,0,0,-0.0161,-0.0153,-0.013,-0.0126,-0.0122,-0.0026,-0.001,0.0052,0.0022,-0.0026,0.0018,0.0016,0.0071,0.0081,0.0119,0.0211,0.0216,0.0154,0.0158,0.016,0.0162,0,0,0,0,0,0,0,-0.0166,-0.0157,-0.01,-0.0129,-0.0124,-0.0066,-0.0058,0.0003,0.0035,-0.0022,-0.002,-0.0014,0.0074,0.0113,0.0121,0.0218,0.0154,0.0159,0.0163,0.0165,0.0359,0.036,0,0,0,0,0,0,-0.02,-0.0163,-0.0104,-0.0097,-0.0152,-0.0065,-0.0055,-0.005,0.0035,0.0044,-0.0012,-0.0012,0.0104,0.0114,0.0125,0.0188,0.016,0.0166,0.0169,0.0357,0.0359,0.0361,0,0,0,0,0,0,-0.0202,-0.0196,-0.011,-0.0131,-0.0117,-0.0063,-0.0057,-0.0047,-0.003,0.0041,0.0051,-0.0011,0.0103,0.0117,0.0178,0.0193,0.0168,0.0174,0.0356,0.0358,0.036,0.033,0,0,0,0,0,0,-0.0205,-0.0197,-0.02,-0.0134,-0.0118,-0.0059,-0.0056,-0.0043,-0.0025,-0.0024,0.0047,0.0056,0.0102,0.0169,0.0184,0.0201,0.0178,0.0353,0.0357,0.0359,0.0329,0.0331,0.0333,0,0,0,0,0,-0.0208,-0.0187,-0.02,-0.0193,-0.0125,-0.0059,-0.0043,-0.0006,-0.0024,-0.0001,0.0043,0.0053,0.0198,0.0175,0.0192,0.0211,0.0352,0.0356,0.0359,0.0328,0.0331,0.0333,0,0,0,0,0,0,-0.0197,-0.0179,-0.0193,-0.0164,-0.0128,-0.0054,-0.0028,-0.0019,0.0036,0.0025,0.0079,0.0095,0.0152,0.0192,0.0165,0.0278,0.0275,0.0282,0.0246,0.0249,0.0251,0.0255,0.0183,0,0,0,0,0,-0.0207,-0.0196,-0.0169,-0.0141,-0.0137,-0.0095,-0.0068,-0.0051,0.0002,0.0022,0.0066,0.0121,0.0189,0.0221,0.0283,0.0348,0.0359,0.0372,0.0374,0.0375,0.0392,0.0419,0.0424,0.0373,0.0373,0.0373,0,0,-0.0188,-0.0181,-0.017,-0.0141,-0.0114,-0.0074,-0.008,-0.0046,-0.0004,0.0027,0.009,0.0125,0.0207,0.0281,0.031,0.031,0.039,0.0379,0.038,0.0397,0.0423,0.0428,0.0432,0.0375,0.0375,0.0374,0,0,-0.0137,-0.0154,-0.0133,-0.0111,-0.0093,-0.0064,-0.0068,-0.0023,-0.0003,0.0057,0.0091,0.0137,0.0231,0.03,0.0347,0.04,0.0395,0.0406,0.0427,0.0451,0.0455,0.0458,0.0446,0.0449,0.0412,0.0412,0.0412,0,-0.0132,-0.0096,-0.0108,-0.0083,-0.0058,-0.0068,-0.0028,0.0006,0.0069,0.0097,0.007,0.0211,0.0253,0.0371,0.0382,0.0404,0.0398,0.0404,0.045,0.0454,0.0458,0.0445,0.0449,0.0411,0.0411,0.0411,0.0411,0,-0.006,-0.0041,-0.0023,-0.0005,0.0024,0.0058,0.0079,0.0102,0.0099,0.0135,0.0208,0.0264,0.0351,0.0362,0.0388,0.0454,0.043,0.0438,0.0433,0.0461,0.0446,0.045,0.0409,0.041,0.041,0.041,0,0,-0.0042,0.0011,0.0011,0.004,0.0059,0.0101,0.0143,0.0201,0.0241,0.0263,0.0334,0.041,0.0404,0.0458,0.0483,0.0498,0.0494,0.047,0.0472,0.0438,0.0511,0.0423,0.0419,0.0494,0.0496,0.0497,0.0475,0,0.0005,0.0082,0.0089,0.0169,0.021,0.0208,0.0261,0.0303,0.0326,0.0387,0.0417,0.049,0.0454,0.0483,0.0492,0.051,0.0509,0.0498,0.0508,0.0509,0.0412,0.0423,0.0413,0.0388,0.0479,0.048,0.048,0,0.0054,0.0105,0.0191,0.0261,0.0273,0.0315,0.0383,0.0428,0.049,0.0505,0.0551,0.0569,0.0619,0.0569,0.0586,0.0571,0.0538,0.0527,0.0526,0.0465,0.043,0.0386,0.0392,0.0487,0.0487,0.0486,0.0486,0,0.0092,0.0167,0.0245,0.0271,0.0349,0.0379,0.0407,0.0463,0.0511,0.0578,0.0609,0.0659,0.0683,0.0663,0.0609,0.0598,0.0598,0.0592,0.0485,0.0477,0.0486,0.0476,0.0599,0.0599,0.0599,0.0599,0.0599,0,0.0142,0.0201,0.0269,0.032,0.0407,0.0423,0.0503,0.0536,0.0592,0.0652,0.0666,0.0706,0.07,0.0692,0.0639,0.0558,0.0619,0.0491,0.0474,0.0471,0.0461,0.0573,0.0571,0.0598,0.0598,0.0598,0.0598,0,0.019,0.0226,0.0334,0.0418,0.0435,0.0499,0.0553,0.0602,0.0636,0.0713,0.0733,0.0754,0.0707,0.0679,0.0647,0.0588,0.0535,0.0491,0.0461,0.044,0.0388,0.0384,0.0381,0.0378,0.0375,0.0373,0.0371,0,0.0234,0.0294,0.041,0.045,0.0486,0.0557,0.0588,0.0631,0.0668,0.0726,0.0756,0.0743,0.0701,0.0606,0.052,0.0419,0.0449,0.0353,0.0339,0.0385,0.037,0.037,0.037,0.0334,0.0332,0.033,0.0329,0,0.0336,0.0372,0.0455,0.0511,0.0557,0.0624,0.0657,0.0691,0.0724,0.0749,0.0735,0.0703,0.0614,0.0493,0.037,0.0309,0.0368,0.0311,0.0407,0.0373,0.0335,0.0321,0.0325,0.0315,0.0316,0.0317,0.0318,0.0318,0.0411,0.0468,0.0526,0.0568,0.0612,0.0629,0.0636,0.0655,0.0668,0.0656,0.0669,0.0593,0.0557,0.0331,0.0266,0.0203,0.0203,0.0197,0.0206,0.0216,0.0196,0.0154,0.0095,0.0095,0.0095,0.0095,0.0095,0,0.0478,0.0503,0.0553,0.0586,0.0583,0.0607,0.0629,0.0602,0.0554,0.058,0.0528,0.0435,0.0333,0.0288,0.0163,0.0096,0.0136,0.009,0.0173,0.0185,0.0196,0.0181,0.0073,0.0073,0.0073,0.0074,0,0,0.0521,0.0543,0.0528,0.0511,0.0514,0.0485,0.0469,0.0444,0.0442,0.0384,0.0356,0.0361,0.0324,0.0246,0.018,0.0121,0.0169,0.0109,0.0125,0.024,0.0253,0.0246,0.0233,0,0,0,0,0]}],[{"header":{"parameterUnit":"m.s-1","parameterCategory":2,"la1":30.2991,"la2":30.254,"lo1":-89.0895,"lo2":-89.0444,"dy":0.0017,"dx":0.0017,"nx":28,"ny":28,"refTime":"2024-08-14T09:00:00:Z","depth":"4","parameterNumber":2,"parameterNumberName":"U-component_of_CURRENTS"},"data":[0,0,0,0,0,0,0,0,0,0,0,0,0,0,0,0,0,0,0,0,0,0,0,0,0,0,0,0,0,0,0,0,0,0,0,0,0,0,0,0,0,0,0,0,0,0,0,0,0,0,0,0,0,0,0,0,0,0,-0.0314,-0.0314,0,-0.0332,-0.0332,-0.0333,-0.0342,-0.0342,-0.0342,-0.0341,-0.0328,-0.0328,-0.0328,0,0,0,0,0,0,0,0,0,0,0,0,0,-0.0327,-0.0326,-0.0314,-0.0314,-0.0314,-0.0331,-0.0332,-0.0333,-0.0342,-0.0342,-0.0341,-0.0341,-0.0328,-0.0328,-0.0328,0,0,0,0,0,0,0,0,0,0,0,0,0,-0.0334,-0.0326,-0.0314,-0.0317,-0.0317,-0.0331,-0.0332,-0.0333,-0.0343,-0.0342,-0.0341,-0.0341,-0.0328,-0.0328,-0.0328,-0.034,0,0,-0.0329,-0.0329,0,0,0,0,0,0,0,0,-0.0334,-0.0335,-0.0317,-0.0317,-0.0317,-0.033,-0.0332,-0.0332,-0.0343,-0.0338,-0.0341,-0.0341,-0.0324,-0.0324,-0.0336,-0.034,-0.0339,-0.0329,-0.0329,-0.0329,-0.0329,0,0,0,0,0,0,0,-0.0333,-0.0334,-0.0325,-0.0317,-0.0317,-0.033,-0.0331,-0.0333,-0.0337,-0.0338,-0.0338,-0.0333,-0.0324,-0.0336,-0.0335,-0.0339,-0.0329,-0.0329,-0.0329,-0.0329,-0.0221,-0.0218,0,0,0,0,0,0,-0.0321,-0.0333,-0.0325,-0.0326,-0.0319,-0.033,-0.0331,-0.033,-0.0337,-0.0337,-0.0333,-0.0333,-0.0336,-0.0335,-0.0335,-0.0192,-0.0329,-0.0329,-0.0329,-0.0224,-0.022,-0.0217,0,0,0,0,0,0,-0.0321,-0.032,-0.0324,-0.0326,-0.0327,-0.033,-0.0329,-0.0331,-0.031,-0.0333,-0.0333,-0.0306,-0.0335,-0.0334,-0.0274,-0.0197,-0.0329,-0.0329,-0.0227,-0.0223,-0.0219,-0.0006,0,0,0,0,0,0,-0.0322,-0.032,-0.0322,-0.0325,-0.0326,-0.0315,-0.0329,-0.0331,-0.0308,-0.0307,-0.031,-0.0311,-0.0335,-0.0274,-0.0274,-0.02,-0.0329,-0.0231,-0.0225,-0.022,-0.0017,0.0005,0.0023,0,0,0,0,0,-0.0322,-0.0326,-0.0322,-0.0321,-0.0326,-0.0314,-0.0316,-0.032,-0.0306,-0.0298,-0.0266,-0.0309,-0.0241,-0.027,-0.0272,-0.0196,-0.0234,-0.0227,-0.0221,-0.0026,0.0,0.0023,0,0,0,0,0,0,-0.0332,-0.0327,-0.0322,-0.0324,-0.0309,-0.0313,-0.0306,-0.0297,-0.0269,-0.0247,-0.0267,-0.0264,-0.0182,-0.0225,-0.0258,-0.0152,-0.0247,-0.0241,-0.0099,-0.0074,-0.0054,-0.009,-0.0329,0,0,0,0,0,-0.0333,-0.0328,-0.0321,-0.0314,-0.0304,-0.0295,-0.0289,-0.0275,-0.025,-0.0238,-0.021,-0.019,-0.0165,-0.0146,-0.0136,-0.0079,-0.0205,-0.0035,-0.0015,0.0003,-0.0028,-0.0181,-0.0179,-0.0196,-0.0196,-0.0196,0,0,-0.0336,-0.0327,-0.0326,-0.0314,-0.0302,-0.027,-0.029,-0.0254,-0.0203,-0.0238,-0.0134,-0.0112,-0.0134,-0.0055,-0.0025,-0.0074,-0.0042,0.0011,0.0026,-0.0016,-0.0174,-0.0174,-0.0173,-0.0192,-0.0193,-0.0193,0,0,-0.0319,-0.0322,-0.0305,-0.0286,-0.0249,-0.0236,-0.0212,-0.0166,-0.0127,-0.0027,-0.0032,0.0019,0.0089,0.0074,0.0073,0.0195,0.0071,0.0236,0.0312,0.0168,0.0166,0.0163,0.007,0.0056,0.0244,0.0244,0.0245,0,-0.0314,-0.0293,-0.0297,-0.0263,-0.0233,-0.0208,-0.0162,-0.0124,-0.0045,-0.0004,0.0037,0.0125,0.013,0.0161,0.0242,0.0237,0.0155,0.0232,0.0189,0.0183,0.0176,0.008,0.0062,0.0255,0.0254,0.0253,0.0252,0,-0.028,-0.0254,-0.0235,-0.0181,-0.0154,-0.0106,-0.005,0.002,0.0103,0.0145,0.0244,0.0266,0.0299,0.0341,0.0352,0.0339,0.0302,0.0234,0.0122,0.019,0.0086,0.0064,0.0271,0.0267,0.0264,0.0261,0,0,-0.0263,-0.0224,-0.0204,-0.0171,-0.0098,-0.0067,0.003,0.0104,0.0158,0.0273,0.0321,0.043,0.0448,0.0443,0.0452,0.0369,0.0312,0.0324,0.0312,0.0222,0.0036,0.0233,0.0225,0.0246,0.0242,0.0239,0.0007,0,-0.0217,-0.0161,-0.0136,-0.0047,-0.0014,0.0042,0.0122,0.0198,0.0273,0.0332,0.0358,0.0422,0.0481,0.0524,0.0459,0.0341,0.0253,0.0382,-0.0011,-0.0023,0.0133,0.0205,0.0226,-0.0011,-0.0016,-0.002,-0.0023,0,-0.0162,-0.0141,-0.0062,0.001,0.0036,0.0116,0.0222,0.0295,0.0356,0.0411,0.046,0.0471,0.0459,0.0454,0.0264,0.0358,0.0223,0.0108,0.0093,0.0168,0.0131,-0.0112,-0.0067,-0.0063,-0.006,-0.0057,-0.0054,0,-0.0132,-0.0067,-0.0003,0.0025,0.0104,0.0187,0.026,0.0345,0.0399,0.0453,0.0475,0.0455,0.0441,0.0277,0.0178,0.0197,-0.0097,-0.0144,-0.0118,-0.0107,-0.0319,-0.0315,-0.0368,-0.0368,-0.0367,-0.0367,-0.0366,0,-0.0067,-0.0014,0.0025,0.0071,0.0172,0.0227,0.0341,0.0416,0.0459,0.049,0.0529,0.052,0.0391,0.0262,0.0128,-0.0,-0.0145,-0.01,-0.0155,-0.0209,-0.019,-0.0332,-0.0325,-0.0375,-0.0373,-0.0372,-0.037,0,0.0011,0.0015,0.0083,0.0161,0.0203,0.0296,0.0409,0.0448,0.0514,0.0532,0.0554,0.0531,0.0431,0.0296,0.0006,-0.004,-0.0225,-0.0269,-0.0265,-0.0319,-0.0139,-0.0118,-0.0278,-0.0273,-0.0268,-0.0265,-0.0262,0,0.0048,0.0091,0.0169,0.0202,0.027,0.0376,0.0432,0.0503,0.0512,0.0539,0.0517,0.0479,0.0459,0.0212,0.0081,-0.0137,-0.0165,-0.0268,-0.0215,-0.0092,-0.0132,-0.0117,-0.0102,-0.0255,-0.0254,-0.0253,-0.0252,0,0.0128,0.0171,0.0223,0.0275,0.0342,0.039,0.0468,0.0482,0.0518,0.0535,0.0513,0.0486,0.0382,0.0259,0.0139,-0.0042,-0.0187,-0.0226,-0.0237,-0.0188,-0.0068,-0.0108,-0.0098,-0.0237,-0.0239,-0.0241,-0.0242,0,0.0184,0.0242,0.0287,0.0339,0.0374,0.0399,0.0453,0.0456,0.0477,0.0498,0.0471,0.043,0.0382,0.0304,0.016,0.0087,0.005,-0.0021,-0.0044,-0.0061,0.0132,0.0325,0.023,0,0,0,0,0,0.0236,0.0292,0.0331,0.0364,0.038,0.0401,0.044,0.046,0.0469,0.0459,0.0482,0.0413,0.0353,0.0309,0.0264,0.0228,0.0027,0.0174,-0.0071,-0.0156,-0.0173,0.0044,0,0,0,0,0,0,0.0267,0.0332,0.0334,0.0333,0.0355,0.0372,0.0398,0.0421,0.041,0.0433,0.0389,0.0401,0.0317,0.037,0.0257,0.0242,0.0084,0.0142,0.0141,-0.0147,-0.0162,-0.0176,0.0041,0,0,0,0,0]},{"header":{"parameterUnit":"m.s-1","parameterCategory":2,"la1":30.2991,"la2":30.254,"lo1":-89.0895,"lo2":-89.0444,"dy":0.0017,"dx":0.0017,"nx":28,"ny":28,"refTime":"2024-08-14T09:00:00:Z","depth":"4","parameterNumber":3,"parameterNumberName":"V-component_of_CURRENTS"},"data":[0,0,0,0,0,0,0,0,0,0,0,0,0,0,0,0,0,0,0,0,0,0,0,0,0,0,0,0,0,0,0,0,0,0,0,0,0,0,0,0,0,0,0,0,0,0,0,0,0,0,0,0,0,0,0,0,0,0,0.0275,0.0275,0,0.0285,0.0285,0.0285,0.0371,0.0372,0.0374,0.0376,0.0369,0.0368,0.0366,0,0,0,0,0,0,0,0,0,0,0,0,0,0.0287,0.0287,0.0275,0.0275,0.0275,0.0285,0.0285,0.0285,0.037,0.0372,0.0375,0.0377,0.037,0.0368,0.0366,0,0,0,0,0,0,0,0,0,0,0,0,0,0.0291,0.0287,0.0275,0.0316,0.0319,0.0284,0.0285,0.0286,0.037,0.0373,0.0375,0.0378,0.0371,0.0368,0.0365,0.0293,0,0,0.0357,0.0356,0,0,0,0,0,0,0,0,0.029,0.0291,0.031,0.0313,0.0317,0.0326,0.0287,0.0286,0.0369,0.0354,0.0376,0.0379,0.0349,0.0348,0.0349,0.0293,0.0293,0.0357,0.0355,0.0354,0.0353,0,0,0,0,0,0,0,0.029,0.029,0.0282,0.0309,0.0313,0.0319,0.0323,0.0287,0.0338,0.0355,0.0361,0.0356,0.0352,0.0352,0.0349,0.0293,0.0357,0.0354,0.0352,0.0351,0.0193,0.019,0,0,0,0,0,0,0.0281,0.029,0.0282,0.0282,0.0306,0.0316,0.0321,0.0323,0.0339,0.0344,0.0354,0.036,0.0355,0.0353,0.0349,0.0331,0.0354,0.0351,0.0349,0.0195,0.0192,0.019,0,0,0,0,0,0,0.0282,0.0281,0.0281,0.0283,0.0284,0.0313,0.0314,0.0322,0.0369,0.0337,0.0343,0.0399,0.0357,0.0353,0.0335,0.0329,0.035,0.0347,0.0198,0.0194,0.0191,0.0251,0,0,0,0,0,0,0.0282,0.0281,0.0303,0.0283,0.0283,0.0294,0.0312,0.032,0.0357,0.0367,0.0376,0.0376,0.0359,0.0339,0.0332,0.0326,0.0345,0.0202,0.0197,0.0192,0.0252,0.025,0.0248,0,0,0,0,0,0.0283,0.0291,0.0304,0.0304,0.0305,0.0294,0.0296,0.0327,0.0357,0.0381,0.037,0.0379,0.0303,0.0335,0.0327,0.032,0.0204,0.0198,0.0192,0.0253,0.025,0.0248,0,0,0,0,0,0,0.0304,0.0299,0.0314,0.0322,0.0325,0.0309,0.0332,0.0347,0.0358,0.0373,0.0358,0.0355,0.0327,0.0302,0.0338,0.025,0.0249,0.0241,0.0297,0.0294,0.0292,0.0322,0.0343,0,0,0,0,0,0.0315,0.0336,0.0319,0.0335,0.0336,0.0342,0.0351,0.0364,0.0356,0.037,0.0362,0.0331,0.0284,0.0281,0.0233,0.0201,0.0167,0.018,0.0178,0.0177,0.0189,0.0063,0.0052,0.0171,0.0171,0.0171,0,0,0.0333,0.033,0.0347,0.0344,0.0351,0.0337,0.0358,0.0373,0.0367,0.0358,0.036,0.0326,0.0268,0.0225,0.021,0.0219,0.0137,0.0169,0.017,0.0182,0.0056,0.0045,0.0035,0.0167,0.0168,0.0168,0,0,0.0344,0.0371,0.038,0.0378,0.038,0.0369,0.0381,0.0373,0.039,0.0377,0.0343,0.0301,0.0271,0.0203,0.017,0.0117,0.0119,0.0116,0.0149,0.0027,0.0018,0.0008,0.0019,0.001,0.0126,0.0127,0.0127,0,0.0367,0.0365,0.0382,0.0372,0.0375,0.0384,0.0378,0.0373,0.0361,0.0355,0.039,0.028,0.0246,0.0148,0.0151,0.0114,0.0103,0.0179,0.0029,0.0018,0.0008,0.002,0.0009,0.0129,0.0128,0.0128,0.0128,0,0.0362,0.037,0.0373,0.0366,0.0372,0.0372,0.0355,0.0361,0.0386,0.0368,0.0318,0.0256,0.0206,0.0169,0.0171,0.0068,0.0109,0.0037,0.0052,0.0001,0.0016,0.0004,0.0132,0.0131,0.013,0.013,0,0,0.0384,0.0373,0.038,0.0381,0.0372,0.0373,0.036,0.0341,0.033,0.032,0.0286,0.0216,0.0218,0.0176,0.0133,0.0045,-0.0004,0.0054,0.0046,0.0098,-0.0156,-0.012,-0.0129,-0.0088,-0.0091,-0.0094,-0.0088,0,0.038,0.0361,0.0362,0.036,0.0348,0.0358,0.0348,0.0334,0.0325,0.0287,0.0223,0.0181,0.0206,0.02,0.0117,-0.0013,-0.0043,0.0009,-0.0143,-0.0145,-0.0084,-0.0148,-0.0106,-0.0097,-0.01,-0.0102,-0.0103,0,0.036,0.0358,0.0352,0.0357,0.036,0.037,0.0368,0.0362,0.0301,0.0301,0.0254,0.021,0.0114,0.0126,-0.0047,0.0001,-0.0029,-0.0116,-0.0121,-0.0121,-0.0136,-0.006,-0.0125,-0.0124,-0.0122,-0.012,-0.0119,0,0.035,0.0348,0.0353,0.0354,0.0355,0.0384,0.0409,0.0378,0.036,0.0317,0.0284,0.0181,0.0112,0.0018,-0.0074,-0.0054,-0.0276,-0.0302,-0.0283,-0.0275,-0.0327,-0.0319,-0.0402,-0.0402,-0.0402,-0.0402,-0.0402,0,0.0318,0.0326,0.0365,0.0367,0.0394,0.0419,0.0428,0.0435,0.0397,0.0337,0.0319,0.0223,0.0075,-0.0054,-0.0098,-0.0213,-0.0283,-0.027,-0.0304,-0.0292,-0.0281,-0.033,-0.0322,-0.0402,-0.0402,-0.0402,-0.0402,0,0.0286,0.03,0.0304,0.0351,0.038,0.0414,0.0458,0.0433,0.0443,0.0352,0.0348,0.0219,0.0078,-0.0041,-0.0243,-0.0262,-0.0378,-0.0382,-0.0275,-0.0304,-0.0259,-0.0248,-0.0356,-0.0355,-0.0355,-0.0354,-0.0354,0,0.0253,0.0258,0.0308,0.0321,0.0357,0.0413,0.0425,0.0457,0.041,0.033,0.0252,0.0133,0.0047,-0.0168,-0.0288,-0.036,-0.0368,-0.0368,-0.0367,-0.0248,-0.027,-0.026,-0.025,-0.0353,-0.0353,-0.0353,-0.0353,0,0.0208,0.0241,0.0252,0.0287,0.0316,0.0322,0.0353,0.033,0.0322,0.0297,0.0188,0.0118,-0.0054,-0.0184,-0.0235,-0.0299,-0.0363,-0.0363,-0.0364,-0.0362,-0.0246,-0.0266,-0.0257,-0.0351,-0.0351,-0.0352,-0.0352,0,0.0187,0.0187,0.0217,0.0246,0.025,0.0243,0.0274,0.0247,0.0231,0.0176,0.0117,0.0018,-0.0069,-0.0154,-0.0227,-0.0269,-0.0268,-0.0256,-0.0263,-0.0265,-0.0253,-0.0092,-0.0184,0,0,0,0,0,0.0167,0.0179,0.0183,0.0197,0.0187,0.0207,0.0203,0.022,0.02,0.0135,0.0154,0.0034,-0.0056,-0.0128,-0.016,-0.0232,-0.0293,-0.027,-0.0286,-0.0342,-0.0344,-0.0344,0,0,0,0,0,0,0.0157,0.0168,0.0169,0.014,0.0147,0.0136,0.0139,0.014,0.0115,0.0106,0.0051,0.0045,-0.0062,-0.0033,-0.0157,-0.0177,-0.0184,-0.0318,-0.0318,-0.0341,-0.0342,-0.0344,-0.0345,0,0,0,0,0]}]]